Location: Alma
(38.7220°N, 88.9090°W)
Time: 09:55:32
(UTC-06:00)

Vanguard 2 Rocket - Pass Details

Date: 24 November 2019
Orbit: 554 x 3326 km, 32.9° (Epoch: 10 December)

Event Time Altitude Azimuth Distance (km) Brightness Sun altitude
Rises 04:38:01 0° 263° (W) 3,156 - -24.9°
Reaches altitude 10° 04:40:36 10° 246° (WSW) 2,473 - -24.4°
Exits shadow 04:43:31 20° 215° (SW) 2,143 8.5 -23.9°
Maximum altitude 04:44:58 21° 198° (SSW) 2,213 8.7 -23.6°
Drops below altitude 10° 04:51:06 10° 153° (SSE) 3,641 10.4 -22.4°
Sets 04:56:02 0° 140° (SE) 5,186 11.5 -21.5°
